KEBS

Details ICAO KEBS
Name WEBSTER CITY MUNI
Region United States
Timezone America/Chicago (UTC-5.0)
Plans Departing 2
Arriving 1
Stats Elevation 1,121 ft / 342 m (AMSL)
Location 42.436794° -93.868713°
Runways 2
Magnetic Variation 0.981° E
Sunrise 2017-04-24 11:21:09 UTC / 2017-04-24 06:21:09 Local
Sunset 2017-04-25 01:08:12 UTC / 2017-04-24 20:08:12 Local
Advertisement - Login to hide

Runways

ID Width Length Bearing (true) Bearing (mag) Surface Threshold Offset Overrun Length
05 90 ft / 27 m 2,705 ft / 824 m 47.58° 46.60° Grass 0 ft / 0 m 0 ft / 0 m
14 75 ft / 23 m 4,007 ft / 1,221 m 144.08° 143.10° Concrete 0 ft / 0 m 0 ft / 0 m
23 90 ft / 27 m 2,705 ft / 824 m 227.58° 226.60° Grass 0 ft / 0 m 0 ft / 0 m
32 75 ft / 23 m 4,007 ft / 1,221 m 324.08° 323.10° Concrete 0 ft / 0 m 0 ft / 0 m

Map

Weather

Temperature
Clouds and Precipitation
Forecast for 2017-04-25 06:00 UTC. Updated an hour ago
Winds

METAR

KEBS 250435Z AUTO 15009KT 10SM OVC075 16/01 A2954 RMK AO2

TAF

Not found

Frequencies

Recorded 127.82 MHz AWOS 3
Unicom 122.80 MHz CTAF/UNICOM
Warning: Do not use this data for real-world aviation or navigation. No guarantee of current accuracy is given.